Location: Zapote
(9.9191°N, 84.0597°W)
Time: 14:41:34
(UTC-06:00)

Courier 1B Rocket - Pass Details

Date: 09 March 2021
Orbit: 920 x 1202 km, 28.2° (Epoch: 11 April)

Event Time Altitude Azimuth Distance (km) Brightness Sun altitude
Rises 19:03:25 0° 294° (WNW) 4,013 9.4 -19.6°
Reaches altitude 10° 19:06:12 10° 292° (WNW) 3,079 8.6 -20.3°
Maximum altitude 19:13:53 70° 210° (SSW) 1,264 5.6 -22.2°
Enters shadow 19:18:15 29° 134° (SE) 2,046 6.3 -23.3°
